Change the Weather History Date:

Thursday, February 23, 2012

  Actual Average Record
Temperature  
Mean Temperature 32 °F -  
Max Temperature 35 °F 34 °F 64 °F (2002)
Min Temperature 28 °F 15 °F -14 °F (1993)
Degree Days  
Heating Degree Days 34    
Moisture  
Dew Point 29 °F    
Average Humidity 87    
Maximum Humidity 93    
Minimum Humidity 81    
Precipitation  
Precipitation 0.22 in - - ()
Sea Level Pressure  
Sea Level Pressure 29.55 in    
Wind  
Wind Speed 11 mph (NNE)    
Max Wind Speed 20 mph    
Max Gust Speed 24 mph    
Visibility 3 miles    
Events Fog , Snow    
Averages and records for this station are not official NWS values.
T = Trace of Precipitation, MM = Missing Value Source: NWS Daily Summary

Daily Weather History Graph

Daily Weather History Graph

Search for Another Location

Airport or City:

Trip Planner

Search our weather history database for the weather conditions in past years. The results will help you decide how hot, cold, wet, or windy it might be!

Date:

Astronomy

Feb. 23, 2012 Rise Set
Actual Time 7:07 AM CST 6:01 PM CST
Civil Twilight 6:38 AM CST 6:30 PM CST
Nautical Twilight 6:05 AM CST 7:03 PM CST
Astronomical Twilight 5:32 AM CST 7:36 PM CST
Moon 7:29 AM CST (2/23) 8:13 PM CST (2/23)
Length of Visible Light 11h 52m
Length of Day
10h 54m
Waxing Crescent, 3% of the Moon is Illuminated
Feb 23
Waxing Crescent
Feb 29
First Quarter
Mar 8
Full
Mar 14
Last Quarter
Mar 22
New

Hourly Weather History & Observations

Time (CST) Temp. Windchill Dew Point Humidity Pressure Visibility Wind Dir Wind Speed Gust Speed Precip Events Conditions
12:53 AM 30.0 °F 24.1 °F 27.0 °F 88% 29.43 in 10.0 mi East 5.8 mph - N/A   Overcast
1:53 AM 32.0 °F 26.4 °F 28.9 °F 88% 29.42 in 10.0 mi East 5.8 mph - N/A   Overcast
2:53 AM 33.1 °F 26.9 °F 30.0 °F 89% 29.42 in 10.0 mi East 6.9 mph - N/A   Overcast
3:53 AM 33.1 °F 27.7 °F 30.0 °F 89% 29.40 in 10.0 mi East 5.8 mph - N/A   Overcast
4:53 AM 34.0 °F 28.8 °F 30.0 °F 85% 29.40 in 10.0 mi East 5.8 mph - N/A   Overcast
5:53 AM 34.0 °F 28.8 °F 30.0 °F 85% 29.43 in 10.0 mi ENE 5.8 mph - 0.00 in   Overcast
6:53 AM 34.0 °F 27.2 °F 30.0 °F 85% 29.44 in 9.0 mi East 8.1 mph - 0.01 in   Overcast
7:15 AM 33.8 °F 24.8 °F 30.2 °F 87% 29.40 in 3.0 mi ESE 12.7 mph - 0.00 in Snow Light Snow
7:23 AM 33.8 °F 25.3 °F 30.2 °F 87% 29.39 in 2.5 mi ESE 11.5 mph - 0.00 in Snow Light Snow
7:34 AM 33.8 °F 25.8 °F 30.2 °F 87% 29.39 in 5.0 mi ESE 10.4 mph - 0.00 in Snow Light Snow
8:53 AM 34.0 °F 29.8 °F 30.9 °F 89% 29.46 in 10.0 mi ENE 4.6 mph - N/A   Overcast
9:42 AM 33.8 °F 27.0 °F 30.2 °F 87% 29.43 in 2.5 mi East 8.1 mph - 0.01 in Snow Light Snow
9:53 AM 34.0 °F 27.2 °F 30.9 °F 89% 29.47 in 2.0 mi ENE 8.1 mph - 0.01 in Snow Light Snow
10:10 AM 35.6 °F 28.6 °F 30.2 °F 81% 29.44 in 5.0 mi East 9.2 mph - 0.00 in Snow Light Snow
10:28 AM 35.6 °F 28.0 °F 30.2 °F 81% 29.44 in 2.5 mi East 10.4 mph - 0.00 in Snow Light Snow
10:40 AM 35.6 °F 27.5 °F 30.2 °F 81% 29.45 in 5.0 mi East 11.5 mph - 0.00 in Snow Light Snow
10:53 AM 35.1 °F 28.6 °F 30.0 °F 82% 29.49 in 9.0 mi East 8.1 mph - 0.00 in   Overcast
11:53 AM 35.1 °F 28.6 °F 30.0 °F 82% 29.50 in 10.0 mi East 8.1 mph - 0.00 in   Overcast
12:53 PM 35.1 °F 27.4 °F 30.0 °F 82% 29.53 in 3.0 mi NE 10.4 mph - 0.00 in Snow Light Snow
12:56 PM 35.6 °F 28.0 °F 30.2 °F 81% 29.49 in 1.8 mi NE 10.4 mph - 0.00 in Snow Light Snow
1:08 PM 33.8 °F 25.3 °F 30.2 °F 87% 29.49 in 0.8 mi NE 11.5 mph - 0.00 in Snow Light Snow
1:20 PM 33.8 °F 24.8 °F 30.2 °F 87% 29.49 in 0.8 mi NNE 12.7 mph - 0.01 in Snow Light Snow
1:53 PM 34.0 °F 23.8 °F 30.9 °F 89% 29.52 in 1.0 mi NNE 16.1 mph - 0.01 in Snow Light Snow
1:59 PM 33.8 °F 23.9 °F 30.2 °F 87% 29.48 in 0.8 mi North 15.0 mph - 0.00 in Snow Light Snow
2:22 PM 33.8 °F 23.5 °F 30.2 °F 87% 29.50 in 1.0 mi North 16.1 mph - 0.01 in Snow Light Snow
2:30 PM 33.8 °F 23.9 °F 30.2 °F 87% 29.50 in 0.8 mi North 15.0 mph - 0.01 in Snow Light Snow
2:42 PM 33.8 °F 23.9 °F 30.2 °F 87% 29.50 in 0.8 mi North 15.0 mph - 0.01 in Snow Light Snow
2:46 PM 33.8 °F 24.3 °F 30.2 °F 87% 29.50 in 1.0 mi North 13.8 mph - 0.01 in Snow Light Snow
2:53 PM 33.1 °F 22.2 °F 30.0 °F 89% 29.55 in 1.0 mi North 17.3 mph - 0.01 in Snow Light Snow
3:01 PM 33.8 °F 23.2 °F 30.2 °F 87% 29.51 in 1.0 mi North 17.3 mph - 0.00 in Snow Light Snow
3:08 PM 33.8 °F 23.2 °F 30.2 °F 87% 29.51 in 1.0 mi North 17.3 mph 24.2 mph 0.00 in Snow Light Snow
3:39 PM 33.8 °F 22.5 °F 30.2 °F 87% 29.53 in 0.8 mi North 19.6 mph - 0.01 in   Overcast
3:53 PM 33.1 °F 22.6 °F 30.0 °F 89% 29.57 in 0.5 mi North 16.1 mph - 0.01 in Fog Fog
4:37 PM 32.0 °F 20.5 °F 28.4 °F 87% 29.56 in 1.0 mi North 18.4 mph - 0.00 in Snow Light Snow
4:44 PM 30.2 °F 19.3 °F 28.4 °F 93% 29.56 in 1.0 mi North 15.0 mph - 0.00 in   Overcast
4:53 PM 30.9 °F 19.8 °F 28.0 °F 89% 29.60 in 1.0 mi North 16.1 mph - 0.01 in   Overcast
5:04 PM 30.2 °F 18.9 °F 28.4 °F 93% 29.57 in 1.0 mi North 16.1 mph - N/A   Overcast
5:16 PM 30.2 °F 18.1 °F 26.6 °F 86% 29.58 in 0.8 mi North 18.4 mph - N/A   Overcast
5:35 PM 30.2 °F 18.9 °F 26.6 °F 86% 29.59 in 0.5 mi North 16.1 mph - 0.02 in Fog Light Freezing Fog
5:53 PM 30.0 °F 18.7 °F 27.0 °F 88% 29.65 in 0.5 mi North 16.1 mph - 0.03 in Fog Light Freezing Fog
6:20 PM 30.2 °F 19.3 °F 26.6 °F 86% 29.63 in 1.0 mi North 15.0 mph - 0.02 in   Mist
6:53 PM 30.0 °F 18.7 °F 27.0 °F 88% 29.70 in 1.8 mi North 16.1 mph - 0.03 in   Overcast
7:01 PM 30.2 °F 18.1 °F 26.6 °F 86% 29.66 in 2.5 mi North 18.4 mph - N/A   Overcast
7:08 PM 30.2 °F 18.1 °F 26.6 °F 86% 29.66 in 4.0 mi North 18.4 mph - N/A   Overcast
7:19 PM 30.2 °F 17.8 °F 26.6 °F 86% 29.67 in 1.8 mi NNW 19.6 mph - N/A   Overcast
7:38 PM 30.2 °F 17.8 °F 26.6 °F 86% 29.68 in 1.0 mi NNW 19.6 mph - 0.02 in   Mist
7:46 PM 30.2 °F 18.5 °F 26.6 °F 86% 29.68 in 1.0 mi NNW 17.3 mph - 0.02 in   Overcast
7:53 PM 30.0 °F 18.3 °F 27.0 °F 88% 29.73 in 1.2 mi NNW 17.3 mph - 0.03 in   Overcast
8:53 PM 28.9 °F 16.9 °F 27.0 °F 92% 29.75 in 1.2 mi North 17.3 mph - 0.04 in   Overcast
9:10 PM 28.4 °F 17.0 °F 26.6 °F 93% 29.71 in 2.0 mi NNW 15.0 mph - N/A   Overcast
9:53 PM 28.9 °F 19.2 °F 26.1 °F 89% 29.76 in 2.5 mi NNW 11.5 mph - 0.01 in   Overcast
10:22 PM 28.4 °F 18.5 °F 26.6 °F 93% 29.72 in 1.8 mi NW 11.5 mph - 0.01 in Snow Light Snow
10:53 PM 28.9 °F 18.6 °F 26.1 °F 89% 29.77 in 1.8 mi NNW 12.7 mph - 0.01 in Snow Light Snow
11:00 PM 28.4 °F 18.5 °F 26.6 °F 93% 29.73 in 2.0 mi NNW 11.5 mph - 0.00 in Snow Light Snow
11:09 PM 28.4 °F 18.5 °F 26.6 °F 93% 29.73 in 1.5 mi NNW 11.5 mph - 0.00 in Snow Light Snow
11:53 PM 28.9 °F 19.8 °F 26.1 °F 89% 29.78 in 2.0 mi NW 10.4 mph - 0.01 in Snow Light Snow